SCP
0 0 0 0 0 0 0 0 0 0 0 0 0 0 0 0 0 0 0 0 0 0 0 0 0 0 0 0 0 0 0 0 0 0 0 0 0 0 0 0 0 0 0 0
0 0 0 0 0 0 0 0 0 0 0 0 0 0 0 0 0 0 0 0 0 0 0 0 0 0 0 0 0 0 0 0 0 0 0 0 0 0 0 0 0 0 0 0
0 0 0 0 0 0 0 0 0 0 0 0 0 0 0 0 0 0 0 0 0 0 0 0 0 0 0 0 0 0 0 0 0 0 0 0 0 0 0 0 0 0 0 0
0 0 0 0 0 0 0 0 0 0 0 0 0 0 0 0 0 0 0 0 0 0 0 0 0 0 0 0 0 0 0 0 0 0 0 0 0 0 0 0 0 0 0 0
0 0 0 0 0 0 0 0 0 0 0 0 0 0 0 0 0 0 0 0 0 0 0 0 0 0 0 0 0 0 0 0 0 0 0 0 0 0 0 0 0 0 0 0
0 0 0 0 0 0 0 0 0 0 0 0 0 0 0 0 0 0 0 0 0 0 0 0 0 0 0 0 0 0 0 0 0 0 0 0 0 0 0 0 0 0 0 0
0 0 0 0 0 0 0 0 0 0 0 0 0 0 0 0 0 0 0 0 0 0 0 0 0 0 0 0 0 0 0 0 0 0 0 0 0 0 0 0 0 0 0 0
0 0 0 0 0 0 0 0 0 0 0 0 0 0 0 0 0 0 0 0 0 0 0 0 0 0 0 0 0 0 0 0 0 0 0 0 0 0 0 0 0 0 0 0
0 0 0 0 0 0 0 0 0 0 0 0 0 0 0 0 0 0 0 0 0 0 0 0 0 0 0 0 0 0 0 0 0 0 0 0 0 0 0 0 0 0 0 0
0 0 0 0 0 0 0 0 0 0 0 0 0 0 0 0 0 0 0 0 0 0 0 0 0 0 0 0 0 0 0 0 0 0 0 0 0 0 0 0 0 0 0 0
0 0 0 0 0 0 0 0 0 0 0 0 0 0 0 0 0 0 0 0 0 0 0 0 0 0 0 0 0 0 0 0 0 0 0 0 0 0 0 0 0 0 0 0
0 0 0 0 0 0 0 0 0 0 0 0 0 0 0 0 0 0 0 0 0 0 0 0 0 0 0 0 0 0 0 0 0 0 0 0 0 0 0 0 0 0 0 0
0 0 0 0 0 0 0 0 0 0 0 0 0 0 0 0 0 0 0 0 0 0 0 0 0 0 0 0 0 0 0 0 0 0 0 0 0 0 0 0 0 0 0 0
0 0 0 0 0 0 0 0 0 0 0 0 0 0 0 0 0 0 0 0 0 0 0 0 0 0 0 0 0 0 0 0 0 0 0 0 0 0 0 0 0 0 0 0
0 0 0 0 0 0 0 0 0 0 0 0 0 0 0 0 0 0 0 0 0 0 0 0 0 0 0 0 0 0 0 0 0 0 0 0 0 0 0 0 0 0 0 0
0 0 0 0 0 0 0 0 0 0 0 0 0 0 0 0 0 0 0 0 0 0 0 0 0 0 0 0 0 0 0 0 0 0 0 0 0 0 0 0 0 0 0 0
0 0 0 0 0 0 0 0 0 0 0 0 0 0 0 0 0 0 0 0 0 0 0 0 0 0 0 0 0 0 0 0 0 0 0 0 0 0 0 0 0 0 0 0
0 0 0 0 0 0 0 0 0 0 0 0 0 0 0 0 0 0 0 0 0 0 0 0 0 0 0 0 0 0 0 0 0 0 0 0 0 0 0 0 0 0 0 0
0 0 0 0 0 0 0 0 0 0 0 0 0 0 0 0 0 0 0 0 0 0 0 0 0 0 0 0 0 0 0 0 0 0 0 0 0 0 0 0 0 0 0 0
0 0 0 0 0 0 0 0 0 0 0 0 0 0 0 0 0 0 0 0 0 0 0 0 0 0 0 0 0 0 0 0 0 0 0 0 0 0 0 0 0 0 0 0
0 0 0 0 0 0 0 0 0 0 0 0 0 0 0 0 0 0 0 0 0 0 0 0 0 0 0 0 0 0 0 0 0 0 0 0 0 0 0 0 0 0 0 0
0 0 0 0 0 0 0 0 0 0 0 0 0 0 0 0 0 0 0 0 0 0 0 0 0 0 0 0 0 0 0 0 0 0 0 0 0 0 0 0 0 0 0 0
0 0 0 0 0 0 0 0 0 0 0 0 0 0 0 0 0 0 0 0 0 0 0 0 0 0 0 0 0 0 0 0 0 0 0 0 0 0 0 0 0 0 0 0
0 0 0 0 0 0 0 0 0 0 0 0 0 0 0 0 0 0 0 0 0 0 0 0 0 0 0 0 0 0 0 0 0 0 0 0 0 0 0 0 0 0 0 0
0 0 0 0 0 0 0 0 0 0 0 0 0 0 0 0 0 0 0 0 0 0 0 0 0 0 0 0 0 0 0 0 0 0 0 0 0 0 0 0 0 0 0 0
0 0 0 0 0 0 0 0 0 0 0 0 0 0 0 0 0 0 0 0 0 0 0 0 0 0 0 0 0 0 0 0 0 0 0 0 0 0 0 0 0 0 0 0
0 0 0 0 0 0 0 0 0 0 0 0 0 0 0 0 0 0 0 0 0 0 0 0 0 0 0 0 0 0 0 0 0 0 0 0 0 0 0 0 0 0 0 0
Wind_Speed
9 9 6 7 10 10 13 14 14 20 20 26 21 15 13 11 11 11 11 10 9 8 7 6 5 6 7 8 9 10 12 15 17 14 13 12 13 13 13 13 14 12 12 11
7 9 9 9 14 18 18 16 16 20 24 21 12 8 8 9 9 9 10 10 9 9 8 8 7 7 7 9 9 10 13 15 12 11 11 12 13 12 13 13 12 12 12 12
8 5 5 11 15 17 12 10 10 14 15 8 9 11 10 9 8 8 9 10 10 9 9 9 8 7 8 8 7 10 12 12 11 11 12 13 13 13 14 14 13 13 12 12
4 1 12 12 5 10 11 13 12 11 11 10 10 10 9 6 4 8 9 9 10 9 9 8 7 7 6 6 7 9 11 11 10 11 12 12 13 14 14 13 13 13 13 13
3 6 13 10 9 7 7 9 7 7 7 7 7 6 5 3 4 6 8 10 10 10 9 9 9 7 6 6 6 8 11 11 11 12 13 13 15 15 13 12 12 12 11 12
5 6 11 10 5 0 1 7 4 2 4 6 6 8 8 8 9 11 10 9 9 9 8 10 9 6 6 8 8 11 11 11 10 11 13 15 15 14 12 11 12 11 11 11
7 9 13 10 4 1 3 7 2 3 6 6 5 8 10 11 11 10 10 11 10 9 8 10 8 6 8 9 11 11 9 8 9 11 13 13 11 10 9 10 10 10 10 10
6 7 13 6 4 6 8 5 6 8 8 9 10 10 10 10 10 10 10 10 9 8 9 10 7 6 9 12 11 8 7 8 9 10 10 9 10 10 10 11 10 10 9 9
12 13 8 3 7 7 6 9 10 9 10 10 11 11 11 10 9 10 10 10 9 9 10 11 8 6 10 12 10 8 8 9 8 8 9 9 10 10 10 10 9 9 9 9
10 12 11 10 10 11 12 13 11 10 10 9 11 11 10 9 8 9 9 10 9 9 11 12 11 9 10 11 9 9 10 9 6 7 8 8 8 9 10 11 11 10 10 9
14 14 11 9 10 10 10 10 10 10 8 7 7 7 6 7 8 9 9 8 8 9 11 14 12 12 11 10 9 9 9 8 6 7 8 9 10 10 11 11 13 12 10 10
19 13 12 13 9 9 10 9 9 7 5 4 3 5 7 7 8 9 10 10 10 11 12 13 13 13 12 9 8 8 9 7 6 5 6 7 7 8 17 16 20 23 17 13
19 14 13 14 10 7 7 6 5 3 3 4 5 6 7 8 8 10 11 12 12 13 13 14 13 14 13 10 8 8 9 8 6 6 7 8 8 9 8 12 20 21 21 20
10 10 12 9 8 5 4 3 2 3 4 5 6 7 8 9 10 11 13 12 12 13 14 13 13 14 13 10 9 9 9 11 9 6 7 7 8 8 8 8 9 9 15 21
9 8 9 7 5 4 2 2 3 5 6 7 7 8 9 11 12 14 14 13 12 13 14 13 13 15 12 9 9 10 8 7 6 6 6 7 7 7 7 8 8 7 5 9
6 6 5 4 4 3 3 3 5 7 8 8 10 11 12 12 13 14 13 12 12 14 15 14 15 15 12 10 10 9 8 13 11 6 6 7 7 8 8 8 8 8 8 8
5 4 3 3 3 4 5 5 7 8 9 10 12 12 13 13 14 14 13 12 12 14 14 14 15 14 12 10 10 8 7 9 13 8 6 7 7 8 8 8 8 8 8 10
4 4 4 4 4 5 7 7 8 9 11 12 12 12 12 13 15 15 15 14 14 14 14 14 13 12 11 10 9 8 7 6 6 6 6 7 7 7 7 8 9 8 6 8
2 3 4 5 6 6 7 9 10 10 11 11 12 13 13 14 14 15 13 13 15 16 13 11 19 15 12 12 13 7 7 7 6 6 5 9 9 7 8 8 8 8 7 7
4 5 6 7 7 7 9 10 11 11 11 11 12 13 14 14 13 13 13 13 12 12 12 15 15 12 11 11 14 7 7 7 7 6 6 6 7 7 8 8 8 8 8 8
6 7 8 9 10 10 11 12 12 13 12 11 12 14 15 14 13 12 12 14 13 12 13 19 13 10 10 11 14 7 7 7 7 6 6 7 7 8 8 8 8 8 8 8
7 8 10 10 11 12 11 10 11 12 12 12 13 13 14 14 13 12 12 12 13 17 14 10 9 14 17 18 9 7 7 7 7 6 6 7 7 7 8 8 8 8 8 7
9 9 10 11 12 13 11 11 11 12 12 13 14 14 14 13 11 12 13 10 10 18 15 10 16 24 26 14 8 8 8 7 7 6 6 7 7 7 7 8 8 7 7 7
10 10 10 11 10 11 13 13 11 11 12 12 13 13 13 12 11 10 11 17 22 23 14 16 24 25 23 9 7 7 7 7 6 5 6 6 6 6 7 7 7 7 7 8
10 10 10 10 11 10 12 12 11 11 12 10 12 13 11 9 11 12 12 13 19 22 13 16 22 22 13 8 8 7 6 6 5 5 5 6 6 6 6 7 7 7 7 7
10 9 9 9 10 10 9 9 10 10 10 11 11 10 9 9 11 12 11 13 15 19 14 10 10 12 8 8 8 7 6 5 5 4 5 6 6 6 6 7 8 7 7 6
8 8 7 8 8 8 8 9 10 11 10 11 13 12 11 11 11 12 13 12 12 11 10 9 8 8 7 7 6 6 4 3 3 3 4 5 5 5 6 7 6 6 6 7
Wind_Direction
253 267 267 244 246 227 215 223 239 262 267 276 286 298 300 305 310 312 313 315 314 308 302 294 272 247 233 232 219 210 213 220 225 222 216 212 207 202 197 194 194 192 193 200
263 254 252 254 247 246 245 240 243 262 272 274 289 298 302 306 308 313 314 314 314 311 306 299 281 260 242 235 221 210 219 227 226 218 213 210 207 200 195 194 191 187 194 198
267 269 296 263 233 232 229 217 213 242 257 299 319 317 312 310 313 311 308 306 306 304 296 290 282 263 251 242 221 215 226 230 222 214 214 211 205 201 199 195 189 190 195 198
280 347 241 246 236 225 236 248 234 249 275 299 293 293 285 275 299 316 313 308 304 299 296 292 285 277 265 249 227 225 232 232 221 212 215 209 205 206 202 195 192 193 196 200
221 252 271 287 267 219 216 268 249 243 271 288 297 313 293 278 311 300 296 293 290 289 289 291 291 288 280 266 245 239 240 236 224 213 212 207 208 208 203 196 196 195 194 197
194 224 254 251 255 240 132 281 272 212 296 307 339 334 299 310 316 309 303 296 295 297 298 296 295 295 281 272 258 251 247 239 224 213 212 213 212 207 200 197 197 192 196 198
217 238 264 261 282 124 211 251 296 313 308 301 281 260 276 296 299 296 297 297 297 298 295 291 295 295 283 279 270 265 256 240 225 215 215 216 212 203 195 195 192 192 196 198
202 221 255 250 163 203 238 285 305 304 297 290 282 282 290 296 295 298 300 300 301 301 298 299 301 294 286 282 281 277 261 246 231 219 212 210 204 199 192 192 191 192 194 199
204 225 245 219 223 253 283 290 291 287 286 289 292 296 300 299 302 304 302 302 304 303 302 303 301 288 284 288 291 284 270 255 239 220 209 201 197 196 191 192 195 194 195 202
255 257 258 265 268 273 274 276 282 284 288 288 289 294 299 302 303 305 303 305 306 309 307 305 306 296 282 286 288 282 274 263 240 221 213 204 199 196 196 197 198 196 196 201
261 271 280 258 257 269 279 284 289 290 288 289 295 300 299 299 300 300 301 300 302 302 300 299 302 299 294 289 286 281 275 264 240 221 211 206 207 207 204 208 204 198 198 193
261 265 272 283 287 288 288 288 289 293 302 311 306 295 297 296 296 298 301 302 303 301 298 300 301 299 298 292 284 279 280 267 243 225 214 209 210 219 224 217 221 219 211 199
259 275 277 288 293 290 286 290 293 291 290 298 300 295 297 295 295 299 301 302 300 299 298 299 299 298 297 294 287 275 271 268 245 227 216 211 208 210 217 223 225 223 216 209
270 281 282 282 283 293 289 288 294 296 289 282 286 294 295 293 295 298 298 297 296 296 296 296 295 295 296 294 289 282 273 268 256 233 219 213 210 209 207 203 206 214 217 212
264 258 264 277 284 288 287 300 310 305 303 302 297 296 296 297 298 297 296 296 295 294 295 297 297 296 298 294 290 287 280 268 254 236 221 214 209 205 205 206 207 201 188 207
277 282 275 271 274 278 288 292 292 293 297 296 298 297 294 292 291 292 292 293 295 297 299 299 295 294 296 293 290 289 281 277 269 244 224 214 207 204 203 204 204 200 198 195
258 271 273 276 276 279 278 276 275 281 287 290 290 292 294 295 295 295 295 293 289 288 290 289 288 290 290 286 285 286 282 278 273 256 223 213 207 205 203 201 203 204 203 196
222 231 241 248 261 276 286 286 282 282 282 283 288 293 293 295 296 297 297 298 297 294 290 285 284 288 286 285 284 281 277 270 257 247 230 215 210 204 201 202 203 203 196 200
295 280 280 278 275 273 275 281 283 281 283 287 290 291 290 289 288 290 294 297 298 297 294 288 300 304 295 292 296 280 272 268 261 250 233 227 220 205 201 202 202 200 193 192
322 312 302 293 287 279 279 281 283 285 285 287 289 291 291 289 290 293 295 291 284 279 284 291 295 292 291 293 299 285 271 263 256 248 232 221 213 204 202 202 200 197 194 194
310 302 296 291 287 281 277 280 285 287 289 288 287 288 289 291 291 291 292 293 289 285 289 296 296 291 294 294 296 283 270 261 250 239 228 218 212 206 202 200 198 197 195 194
292 288 287 286 286 287 284 282 283 286 289 288 287 287 290 293 293 289 279 278 287 294 298 291 291 293 298 300 289 277 267 258 248 233 222 215 210 206 201 196 196 196 192 189
283 283 284 285 287 289 290 286 283 283 284 286 288 289 289 289 290 292 295 290 290 297 300 290 294 300 303 303 287 278 269 260 246 231 219 210 207 203 198 194 193 191 185 182
286 286 284 285 289 291 291 289 284 282 281 283 281 280 282 288 288 280 280 292 298 300 297 293 299 302 306 299 287 281 274 264 245 227 215 205 199 196 193 189 185 182 179 177
279 282 284 287 289 288 287 289 290 287 285 283 281 280 278 274 280 289 290 290 294 300 297 297 300 303 303 293 289 284 277 263 243 220 206 197 192 190 187 183 180 176 175 176
274 276 277 275 277 282 285 287 287 288 290 292 292 290 288 286 285 288 291 291 290 295 297 294 294 297 294 291 288 283 275 269 255 228 200 189 185 182 179 176 171 171 169 168
272 273 276 278 277 274 275 279 283 286 288 289 293 294 293 293 293 294 294 295 295 294 293 292 292 290 289 287 285 281 270 251 231 209 189 180 173 172 170 167 166 163 160 161